"read_dt","SO2 (ppb)","flags","PMT voltage (V)","lamp voltage (V)","lamp intensity (Hz)","internal temp (C)","react chamber temp (C)","sample flow (l/min)","pres (mmHg)","SO2 bkg (ppb)","SO2 coefficient"
2014-08-26 00:00:00,1755E-3,5C000000,-0724,0825,12111,032.9,045.6,0.468,730.7,01.19,0.508
2014-08-26 00:01:00,1838E-3,5C000000,-0724,0826,12190,032.9,045.6,0.468,730.7,01.19,0.508
2014-08-26 00:02:00,1754E-3,5C000000,-0724,0828,12095,032.9,045.6,0.468,730.7,01.19,0.508
2014-08-26 00:03:00,1893E-3,5C000000,-0724,0826,12409,032.9,045.6,0.468,730.7,01.19,0.508
2014-08-26 00:04:00,1937E-3,5C000000,-0724,0826,12143,032.9,045.6,0.468,730.6,01.19,0.508
2014-08-26 00:05:00,1745E-3,5C000000,-0724,0825,12060,032.9,045.7,0.468,730.7,01.19,0.508
2014-08-26 00:06:00,1863E-3,5C000000,-0724,0826,12075,032.9,045.7,0.468,730.6,01.19,0.508
2014-08-26 00:07:00,1828E-3,5C000000,-0724,0827,12268,032.9,045.7,0.468,730.6,01.19,0.508
2014-08-26 00:08:00,1896E-3,5C000000,-0724,0826,12206,032.9,045.7,0.468,730.6,01.19,0.508
2014-08-26 00:09:00,1858E-3,5C000000,-0724,0826,12171,032.9,045.6,0.468,730.6,01.19,0.508
2014-08-26 00:10:00,1849E-3,5C000000,-0724,0826,12165,032.9,045.7,0.468,730.6,01.19,0.508
2014-08-26 00:11:00,1840E-3,5C000000,-0724,0826,12270,032.9,045.7,0.468,730.6,01.19,0.508
2014-08-26 00:12:00,1827E-3,5C000000,-0724,0827,12304,032.9,045.7,0.468,730.6,01.19,0.508
2014-08-26 00:13:00,1800E-3,5C000000,-0724,0825,12269,032.9,045.7,0.468,730.6,01.19,0.508
2014-08-26 00:14:00,1942E-3,5C000000,-0724,0827,11987,032.9,045.6,0.468,730.6,01.19,0.508
2014-08-26 00:15:00,1778E-3,5C000000,-0724,0827,12209,032.9,045.6,0.468,730.5,01.19,0.508
2014-08-26 00:16:00,1841E-3,5C000000,-0724,0827,12167,032.9,045.6,0.468,730.4,01.19,0.508
2014-08-26 00:17:00,1875E-3,5C000000,-0724,0826,12317,032.9,045.7,0.468,730.5,01.19,0.508
2014-08-26 00:18:00,1910E-3,5C000000,-0724,0826,12168,033.0,045.7,0.468,730.5,01.19,0.508
2014-08-26 00:19:00,1716E-3,5C000000,-0724,0826,12406,032.9,045.6,0.468,730.5,01.19,0.508
2014-08-26 00:20:00,1898E-3,5C000000,-0724,0827,12241,032.9,045.7,0.468,730.5,01.19,0.508
2014-08-26 00:21:00,1893E-3,5C000000,-0724,0826,12382,033.0,045.6,0.468,730.4,01.19,0.508
2014-08-26 00:22:00,1841E-3,5C000000,-0724,0826,12174,032.9,045.7,0.468,730.4,01.19,0.508
2014-08-26 00:23:00,1941E-3,5C000000,-0724,0827,12213,032.9,045.7,0.468,730.4,01.19,0.508
2014-08-26 00:24:00,1986E-3,5C000000,-0724,0826,12276,033.0,045.7,0.468,730.4,01.19,0.508
2014-08-26 00:25:00,1983E-3,5C000000,-0724,0826,12352,032.9,045.7,0.468,730.4,01.19,0.508
2014-08-26 00:26:00,1876E-3,5C000000,-0724,0827,12223,033.0,045.6,0.468,730.4,01.19,0.508
2014-08-26 00:27:00,1873E-3,5C000000,-0724,0826,12263,033.0,045.7,0.468,730.4,01.19,0.508
2014-08-26 00:28:00,1866E-3,5C000000,-0724,0826,12280,033.0,045.6,0.468,730.3,01.19,0.508
2014-08-26 00:29:00,1941E-3,5C000000,-0724,0827,12244,033.0,045.6,0.468,730.3,01.19,0.508
2014-08-26 00:30:00,1818E-3,5C000000,-0724,0826,12094,033.0,045.7,0.468,730.3,01.19,0.508
2014-08-26 00:31:00,1896E-3,5C000000,-0724,0826,12255,033.0,045.7,0.468,730.4,01.19,0.508
2014-08-26 00:32:00,1884E-3,5C000000,-0724,0826,12212,033.0,045.7,0.468,730.3,01.19,0.508
2014-08-26 00:33:00,1910E-3,5C000000,-0724,0826,12323,033.0,045.6,0.468,730.4,01.19,0.508
2014-08-26 00:34:00,1752E-3,5C000000,-0724,0826,12312,033.0,045.6,0.468,730.4,01.19,0.508
2014-08-26 00:35:00,1988E-3,5C000000,-0724,0827,12110,033.0,045.6,0.468,730.4,01.19,0.508
2014-08-26 00:36:00,1933E-3,5C000000,-0724,0826,12152,033.0,045.7,0.468,730.4,01.19,0.508
2014-08-26 00:37:00,1895E-3,5C000000,-0724,0826,12293,033.0,045.7,0.468,730.4,01.19,0.508
2014-08-26 00:38:00,1945E-3,5C000000,-0724,0826,12070,033.0,045.7,0.468,730.4,01.19,0.508
2014-08-26 00:39:00,1863E-3,5C000000,-0724,0826,12144,033.0,045.7,0.468,730.4,01.19,0.508
2014-08-26 00:40:00,1843E-3,5C000000,-0724,0827,12285,033.0,045.7,0.468,730.4,01.19,0.508
2014-08-26 00:41:00,1941E-3,5C000000,-0724,0827,12315,033.0,045.6,0.468,730.4,01.19,0.508
2014-08-26 00:42:00,1806E-3,5C000000,-0724,0827,12118,033.0,045.6,0.468,730.4,01.19,0.508
2014-08-26 00:43:00,1807E-3,5C000000,-0724,0825,11960,033.0,045.7,0.468,730.3,01.19,0.508
2014-08-26 00:44:00,1915E-3,5C000000,-0724,0826,12182,033.0,045.7,0.468,730.3,01.19,0.508
2014-08-26 00:45:00,1907E-3,5C000000,-0724,0826,12235,033.0,045.6,0.468,730.3,01.19,0.508
2014-08-26 00:46:00,1769E-3,5C000000,-0724,0826,12213,033.0,045.6,0.468,730.3,01.19,0.508
2014-08-26 00:47:00,1823E-3,5C000000,-0724,0826,12266,033.0,045.7,0.468,730.3,01.19,0.508
2014-08-26 00:48:00,1833E-3,5C000000,-0724,0826,12401,033.0,045.7,0.467,730.2,01.19,0.508
2014-08-26 00:49:00,1740E-3,5C000000,-0724,0826,12295,033.0,045.6,0.468,730.2,01.19,0.508
2014-08-26 00:50:00,1775E-3,5C000000,-0724,0827,12131,033.0,045.7,0.468,730.2,01.19,0.508
2014-08-26 00:51:00,1754E-3,5C000000,-0724,0826,12349,033.0,045.7,0.468,730.2,01.19,0.508
2014-08-26 00:52:00,1744E-3,5C000000,-0724,0826,12390,033.0,045.6,0.468,730.3,01.19,0.508
2014-08-26 00:53:00,1959E-3,5C000000,-0724,0825,12080,033.1,045.7,0.468,730.2,01.19,0.508
2014-08-26 00:54:00,1875E-3,5C000000,-0724,0827,12118,033.0,045.7,0.467,730.3,01.19,0.508
2014-08-26 00:55:00,2038E-3,5C000000,-0724,0826,12073,033.0,045.6,0.468,730.3,01.19,0.508
2014-08-26 00:56:00,1831E-3,5C000000,-0724,0827,12071,033.1,045.6,0.468,730.3,01.19,0.508
2014-08-26 00:57:00,1884E-3,5C000000,-0724,0826,12296,033.1,045.6,0.468,730.3,01.19,0.508
2014-08-26 00:58:00,2189E-3,5C000000,-0724,0827,12346,033.1,045.7,0.468,730.3,01.19,0.508
2014-08-26 00:59:00,2101E-3,5C000000,-0724,0826,12316,033.1,045.7,0.468,730.3,01.19,0.508
2014-08-26 01:00:00,2033E-3,5C000000,-0724,0826,12254,033.1,045.7,0.467,730.4,01.19,0.508
2014-08-26 01:01:00,2054E-3,5C000000,-0724,0826,12183,033.1,045.7,0.468,730.4,01.19,0.508
2014-08-26 01:02:00,1894E-3,5C000000,-0724,0826,12139,033.1,045.6,0.468,730.4,01.19,0.508
2014-08-26 01:03:00,1944E-3,5C000000,-0724,0826,12131,033.1,045.6,0.468,730.4,01.19,0.508
2014-08-26 01:04:00,1888E-3,5C000000,-0724,0826,12161,033.1,045.6,0.468,730.4,01.19,0.508
2014-08-26 01:05:00,1935E-3,5C000000,-0724,0826,12319,033.1,045.7,0.468,730.5,01.19,0.508
2014-08-26 01:06:00,1794E-3,5C000000,-0724,0826,12280,033.1,045.7,0.467,730.5,01.19,0.508
2014-08-26 01:07:00,1900E-3,5C000000,-0724,0827,12197,033.1,045.7,0.468,730.5,01.19,0.508
2014-08-26 01:08:00,1820E-3,5C000000,-0724,0827,12185,033.2,045.7,0.468,730.4,01.19,0.508
2014-08-26 01:09:00,1934E-3,5C000000,-0724,0827,12348,033.2,045.7,0.468,730.5,01.19,0.508
2014-08-26 01:10:00,1829E-3,5C000000,-0724,0826,12366,033.1,045.7,0.468,730.4,01.19,0.508
2014-08-26 01:11:00,1790E-3,5C000000,-0724,0827,12359,033.2,045.6,0.467,730.5,01.19,0.508
2014-08-26 01:12:00,1877E-3,5C000000,-0724,0826,12037,033.2,045.7,0.467,730.5,01.19,0.508
2014-08-26 01:13:00,1847E-3,5C000000,-0724,0826,12301,033.2,045.7,0.468,730.6,01.19,0.508
2014-08-26 01:14:00,2007E-3,5C000000,-0724,0827,12141,033.2,045.7,0.468,730.5,01.19,0.508
2014-08-26 01:15:00,2111E-3,5C000000,-0724,0826,12041,033.2,045.7,0.468,730.6,01.19,0.508
2014-08-26 01:16:00,2035E-3,5C000000,-0724,0827,12377,033.2,045.7,0.467,730.6,01.19,0.508
2014-08-26 01:17:00,1914E-3,5C000000,-0724,0826,12250,033.2,045.7,0.467,730.6,01.19,0.508
2014-08-26 01:18:00,1886E-3,5C000000,-0724,0825,12357,033.2,045.7,0.468,730.6,01.19,0.508
2014-08-26 01:19:00,1857E-3,5C000000,-0724,0827,12189,033.2,045.7,0.468,730.6,01.19,0.508
2014-08-26 01:20:00,1941E-3,5C000000,-0724,0827,12279,033.2,045.7,0.468,730.6,01.19,0.508
2014-08-26 01:21:00,1859E-3,5C000000,-0724,0826,12113,033.2,045.7,0.467,730.5,01.19,0.508
2014-08-26 01:22:00,1939E-3,5C000000,-0724,0827,12229,033.2,045.7,0.468,730.5,01.19,0.508
2014-08-26 01:23:00,1793E-3,5C000000,-0724,0826,12214,033.3,045.6,0.468,730.5,01.19,0.508
2014-08-26 01:24:00,1849E-3,5C000000,-0724,0827,12349,033.3,045.7,0.468,730.5,01.19,0.508
2014-08-26 01:25:00,1932E-3,5C000000,-0724,0827,12227,033.3,045.7,0.467,730.6,01.19,0.508
2014-08-26 01:26:00,1848E-3,5C000000,-0724,0827,12309,033.3,045.7,0.467,730.5,01.19,0.508
2014-08-26 01:27:00,1917E-3,5C000000,-0724,0827,12416,033.3,045.7,0.468,730.5,01.19,0.508
2014-08-26 01:28:00,1939E-3,5C000000,-0724,0827,12250,033.3,045.7,0.468,730.6,01.19,0.508
2014-08-26 01:29:00,1855E-3,5C000000,-0724,0827,11948,033.3,045.7,0.467,730.6,01.19,0.508
2014-08-26 01:30:00,1748E-3,5C000000,-0724,0826,12203,033.3,045.7,0.467,730.7,01.19,0.508
2014-08-26 01:31:00,1850E-3,5C000000,-0724,0827,12345,033.3,045.7,0.468,730.7,01.19,0.508
2014-08-26 01:32:00,1906E-3,5C000000,-0724,0826,12218,033.3,045.7,0.468,730.7,01.19,0.508
2014-08-26 01:33:00,1908E-3,5C000000,-0724,0827,12217,033.3,045.7,0.467,730.7,01.19,0.508
2014-08-26 01:34:00,1786E-3,5C000000,-0724,0827,12304,033.3,045.7,0.467,730.7,01.19,0.508
2014-08-26 01:35:00,1940E-3,5C000000,-0724,0826,12251,033.4,045.7,0.468,730.7,01.19,0.508
2014-08-26 01:36:00,1874E-3,5C000000,-0724,0827,12241,033.4,045.7,0.468,730.6,01.19,0.508
2014-08-26 01:37:00,1914E-3,5C000000,-0724,0827,12279,033.4,045.7,0.467,730.7,01.19,0.508
2014-08-26 01:38:00,1921E-3,5C000000,-0724,0827,12328,033.4,045.7,0.467,730.6,01.19,0.508
2014-08-26 01:39:00,2007E-3,5C000000,-0724,0827,12202,033.4,045.7,0.468,730.7,01.19,0.508
2014-08-26 01:40:00,1939E-3,5C000000,-0724,0827,12178,033.4,045.7,0.468,730.7,01.19,0.508
2014-08-26 01:41:00,1864E-3,5C000000,-0724,0827,12378,033.4,045.7,0.467,730.7,01.19,0.508
2014-08-26 01:42:00,1935E-3,5C000000,-0724,0826,12186,033.4,045.7,0.467,730.6,01.19,0.508
2014-08-26 01:43:00,1953E-3,5C000000,-0724,0827,12243,033.4,045.7,0.468,730.6,01.19,0.508
2014-08-26 01:44:00,1936E-3,5C000000,-0724,0827,12135,033.4,045.7,0.467,730.6,01.19,0.508
2014-08-26 01:45:00,1834E-3,5C000000,-0724,0826,12235,033.4,045.7,0.467,730.6,01.19,0.508
2014-08-26 01:46:00,1892E-3,5C000000,-0724,0826,12164,033.4,045.7,0.467,730.5,01.19,0.508
2014-08-26 01:47:00,1946E-3,5C000000,-0724,0827,12273,033.4,045.7,0.468,730.5,01.19,0.508
2014-08-26 01:48:00,1857E-3,5C000000,-0724,0828,12186,033.4,045.7,0.467,730.5,01.19,0.508
2014-08-26 01:49:00,1963E-3,5C000000,-0724,0827,12200,033.4,045.7,0.467,730.5,01.19,0.508
2014-08-26 01:50:00,1740E-3,5C000000,-0724,0827,12191,033.4,045.7,0.467,730.5,01.19,0.508
2014-08-26 01:51:00,1785E-3,5C000000,-0724,0827,12160,033.5,045.7,0.467,730.5,01.19,0.508
2014-08-26 01:52:00,1869E-3,5C000000,-0724,0826,12248,033.5,045.7,0.467,730.5,01.19,0.508
2014-08-26 01:53:00,1899E-3,5C000000,-0724,0826,12125,033.5,045.7,0.467,730.5,01.19,0.508
2014-08-26 01:54:00,1912E-3,5C000000,-0724,0826,12104,033.5,045.7,0.468,730.4,01.19,0.508
2014-08-26 01:55:00,1885E-3,5C000000,-0724,0827,12198,033.5,045.7,0.467,730.4,01.19,0.508
2014-08-26 01:56:00,1940E-3,5C000000,-0724,0827,12020,033.5,045.7,0.467,730.4,01.19,0.508
2014-08-26 01:57:00,1941E-3,5C000000,-0724,0827,12281,033.5,045.7,0.467,730.4,01.19,0.508
2014-08-26 01:58:00,1926E-3,5C000000,-0724,0827,12284,033.5,045.7,0.467,730.4,01.19,0.508
2014-08-26 01:59:00,1914E-3,5C000000,-0724,0827,12177,033.5,045.7,0.467,730.4,01.19,0.508
2014-08-26 02:00:00,1914E-3,5C000000,-0724,0826,12209,033.5,045.7,0.467,730.4,01.19,0.508
2014-08-26 02:01:00,1800E-3,5C000000,-0724,0827,12373,033.5,045.7,0.467,730.4,01.19,0.508
2014-08-26 02:02:00,1963E-3,5C000000,-0724,0827,12346,033.5,045.7,0.467,730.5,01.19,0.508
2014-08-26 02:03:00,1969E-3,5C000000,-0724,0826,12087,033.5,045.7,0.467,730.5,01.19,0.508
2014-08-26 02:04:00,1837E-3,5C000000,-0724,0827,12309,033.5,045.7,0.467,730.5,01.19,0.508
2014-08-26 02:05:00,1917E-3,5C000000,-0724,0827,12117,033.6,045.7,0.467,730.5,01.19,0.508
2014-08-26 02:06:00,1924E-3,5C000000,-0724,0826,12369,033.6,045.7,0.467,730.5,01.19,0.508
2014-08-26 02:07:00,1712E-3,5C000000,-0724,0826,12315,033.6,045.7,0.467,730.5,01.19,0.508
2014-08-26 02:08:00,1917E-3,5C000000,-0724,0827,12364,033.6,045.7,0.467,730.4,01.19,0.508
2014-08-26 02:09:00,1976E-3,5C000000,-0724,0827,12332,033.6,045.7,0.467,730.4,01.19,0.508
2014-08-26 02:10:00,1852E-3,5C000000,-0724,0827,12413,033.6,045.7,0.467,730.4,01.19,0.508
2014-08-26 02:11:00,1993E-3,5C000000,-0724,0826,12225,033.6,045.7,0.467,730.5,01.19,0.508
2014-08-26 02:12:00,1766E-3,5C000000,-0724,0826,12234,033.6,045.7,0.467,730.4,01.19,0.508
2014-08-26 02:13:00,1879E-3,5C000000,-0724,0826,12067,033.6,045.7,0.467,730.5,01.19,0.508
"read_dt","SO2 (ppb)","flags","PMT voltage (V)","lamp voltage (V)","lamp intensity (Hz)","internal temp (C)","react chamber temp (C)","sample flow (l/min)","pres (mmHg)","SO2 bkg (ppb)","SO2 coefficient"
2014-08-26 07:29:00,2080E-3,5C000004,-0724,0818,12434,025.7,027.3,0.485,730.8,01.19,0.508
2014-08-26 07:30:00,2289E-3,5C000004,-0724,0819,12279,025.8,028.1,0.484,730.9,01.19,0.508
2014-08-26 07:31:00,2420E-3,5C000004,-0724,0820,12245,025.9,029.2,0.483,730.9,01.19,0.508
2014-08-26 07:32:00,2431E-3,5C000004,-0724,0819,12317,026.1,030.2,0.483,730.9,01.19,0.508
2014-08-26 07:33:00,2533E-3,5C000004,-0724,0820,12296,026.2,031.3,0.482,731.0,01.19,0.508
2014-08-26 07:34:00,2315E-3,5C000004,-0724,0821,12324,026.4,032.3,0.482,731.0,01.19,0.508
2014-08-26 07:35:00,2252E-3,5C000004,-0724,0821,12250,026.5,033.4,0.481,731.0,01.19,0.508
2014-08-26 07:36:00,2221E-3,5C000004,-0724,0822,12231,026.7,034.3,0.481,730.9,01.19,0.508
2014-08-26 07:37:00,2414E-3,5C000004,-0724,0822,12462,026.8,035.3,0.480,730.9,01.19,0.508
2014-08-26 07:38:00,2410E-3,5C000004,-0724,0823,12441,027.0,036.2,0.480,731.0,01.19,0.508
2014-08-26 07:39:00,2406E-3,5C000004,-0724,0823,12248,027.2,037.1,0.479,730.9,01.19,0.508
2014-08-26 07:40:00,2219E-3,5C000004,-0724,0824,12260,027.4,037.9,0.479,730.9,01.19,0.508
2014-08-26 07:41:00,2306E-3,5C000004,-0724,0823,12240,027.6,038.7,0.479,730.9,01.19,0.508
2014-08-26 07:42:00,2292E-3,5C000004,-0724,0824,12193,027.7,039.5,0.478,730.9,01.19,0.508
2014-08-26 07:43:00,2187E-3,5C000004,-0724,0824,12185,027.9,040.2,0.478,730.9,01.19,0.508
2014-08-26 07:44:00,2229E-3,5C000004,-0724,0824,12269,028.1,041.0,0.477,730.9,01.19,0.508
2014-08-26 07:45:00,2291E-3,5C000004,-0724,0824,12148,028.3,041.7,0.477,731.0,01.19,0.508
2014-08-26 07:46:00,2152E-3,5C000004,-0724,0825,12250,028.5,042.3,0.476,731.0,01.19,0.508
2014-08-26 07:47:00,2161E-3,5C000000,-0724,0825,12227,028.6,043.0,0.476,730.9,01.19,0.508
2014-08-26 07:48:00,2033E-3,5C000000,-0724,0826,12284,028.8,043.6,0.475,730.9,01.19,0.508
2014-08-26 07:49:00,2138E-3,5C000000,-0724,0825,12394,029.0,044.3,0.476,730.9,01.19,0.508
2014-08-26 07:50:00,2037E-3,5C000000,-0724,0825,12329,029.1,044.9,0.475,730.9,01.19,0.508
2014-08-26 07:51:00,2038E-3,5C000000,-0724,0825,12222,029.2,045.4,0.475,730.9,01.19,0.508
2014-08-26 07:52:00,1968E-3,5C000000,-0724,0825,12346,029.3,045.8,0.475,730.9,01.19,0.508
2014-08-26 07:53:00,1896E-3,5C000000,-0724,0827,12167,029.4,045.7,0.474,730.9,01.19,0.508
2014-08-26 07:54:00,2097E-3,5C000000,-0724,0826,12154,029.5,045.6,0.473,730.9,01.19,0.508
2014-08-26 07:55:00,1960E-3,5C000000,-0724,0825,12384,029.5,045.6,0.474,730.9,01.19,0.508
2014-08-26 07:56:00,2017E-3,5C000000,-0724,0825,12253,029.6,045.6,0.473,730.9,01.19,0.508
2014-08-26 07:57:00,2015E-3,5C000000,-0724,0825,12203,029.7,045.6,0.473,730.8,01.19,0.508
2014-08-26 07:58:00,1967E-3,5C000000,-0724,0825,12114,029.7,045.6,0.473,730.9,01.19,0.508
2014-08-26 07:59:00,2005E-3,5C000000,-0724,0825,12299,029.8,045.6,0.472,730.9,01.19,0.508
2014-08-26 08:00:00,1953E-3,5C000000,-0724,0825,12287,029.8,045.6,0.472,730.9,01.19,0.508
2014-08-26 08:01:00,2124E-3,5C000000,-0724,0825,12168,029.8,045.6,0.473,730.9,01.19,0.508
2014-08-26 08:02:00,1881E-3,5C000000,-0724,0824,12199,029.9,045.6,0.473,730.9,01.19,0.508
2014-08-26 08:03:00,1865E-3,5C000000,-0724,0825,12247,029.9,045.6,0.472,730.9,01.19,0.508
2014-08-26 08:04:00,1882E-3,5C000000,-0724,0824,12378,029.9,045.6,0.472,730.9,01.19,0.508
2014-08-26 08:05:00,1914E-3,5C000000,-0724,0825,12236,029.9,045.6,0.472,730.8,01.19,0.508
2014-08-26 08:06:00,1884E-3,5C000000,-0724,0825,12270,029.9,045.6,0.472,730.9,01.19,0.508
2014-08-26 08:07:00,1942E-3,5C000000,-0724,0825,12055,030.0,045.6,0.472,730.8,01.19,0.508
2014-08-26 08:08:00,1863E-3,5C000000,-0724,0824,12292,029.9,045.6,0.472,730.8,01.19,0.508
2014-08-26 08:09:00,1799E-3,5C000000,-0724,0823,12205,030.0,045.6,0.472,730.8,01.19,0.508
2014-08-26 08:10:00,1893E-3,5C000000,-0724,0824,12204,030.0,045.6,0.472,730.8,01.19,0.508
2014-08-26 08:11:00,1806E-3,5C000000,-0724,0824,12140,030.0,045.6,0.472,730.8,01.19,0.508
2014-08-26 08:12:00,1804E-3,5C000000,-0724,0825,12136,030.0,045.6,0.472,730.8,01.19,0.508
2014-08-26 08:13:00,1799E-3,5C000000,-0724,0824,12342,030.0,045.6,0.472,730.8,01.19,0.508
2014-08-26 08:14:00,1837E-3,5C000000,-0724,0823,12304,030.0,045.6,0.472,730.8,01.19,0.508
2014-08-26 08:15:00,1982E-3,5C000000,-0724,0824,12203,030.0,045.6,0.472,730.8,01.19,0.508
2014-08-26 08:16:00,1927E-3,5C000000,-0724,0823,12146,030.0,045.6,0.472,730.8,01.19,0.508
2014-08-26 08:17:00,1792E-3,5C000000,-0724,0823,12134,030.1,045.6,0.472,730.8,01.19,0.508
2014-08-26 08:18:00,1911E-3,5C000000,-0724,0824,12190,030.1,045.6,0.472,730.8,01.19,0.508
2014-08-26 08:19:00,1785E-3,5C000000,-0724,0823,12238,030.1,045.6,0.472,730.8,01.19,0.508
2014-08-26 08:20:00,1820E-3,5C000000,-0724,0824,12207,030.1,045.6,0.472,730.8,01.19,0.508
2014-08-26 08:21:00,1889E-3,5C000000,-0724,0823,12150,030.1,045.6,0.472,730.8,01.19,0.508
2014-08-26 08:22:00,1881E-3,5C000000,-0724,0823,12177,030.2,045.6,0.472,730.8,01.19,0.508
2014-08-26 08:23:00,1874E-3,5C000000,-0724,0823,12368,030.2,045.6,0.472,730.8,01.19,0.508
2014-08-26 08:24:00,1868E-3,5C000000,-0724,0823,12230,030.2,045.6,0.472,730.8,01.19,0.508
2014-08-26 08:25:00,1750E-3,5C000000,-0724,0823,12131,030.2,045.6,0.472,730.8,01.19,0.508
2014-08-26 08:26:00,1905E-3,5C000000,-0724,0823,12286,030.2,045.6,0.472,730.8,01.19,0.508
2014-08-26 08:27:00,1914E-3,5C000000,-0724,0823,12356,030.2,045.6,0.472,730.7,01.19,0.508
2014-08-26 08:28:00,1889E-3,5C000000,-0724,0823,12331,030.2,045.6,0.472,730.7,01.19,0.508
2014-08-26 08:29:00,1719E-3,5C000000,-0724,0823,12082,030.3,045.6,0.472,730.8,01.19,0.508
2014-08-26 08:30:00,1791E-3,5C000000,-0724,0823,12292,030.3,045.6,0.472,730.7,01.19,0.508
2014-08-26 08:31:00,1863E-3,5C000000,-0724,0823,12396,030.3,045.6,0.472,730.7,01.19,0.508
2014-08-26 08:32:00,1929E-3,5C000000,-0724,0823,12233,030.3,045.6,0.471,730.8,01.19,0.508
2014-08-26 08:33:00,1826E-3,5C000000,-0724,0823,12204,030.3,045.6,0.472,730.7,01.19,0.508
2014-08-26 08:34:00,1804E-3,5C000000,-0724,0822,12412,030.4,045.6,0.472,730.7,01.19,0.508
2014-08-26 08:35:00,1851E-3,5C000000,-0724,0822,12094,030.4,045.6,0.472,730.7,01.19,0.508
2014-08-26 08:36:00,1793E-3,5C000000,-0724,0823,12197,030.4,045.6,0.471,730.7,01.19,0.508
2014-08-26 08:37:00,1838E-3,5C000000,-0724,0823,12408,030.4,045.6,0.471,730.7,01.19,0.508
2014-08-26 08:38:00,1796E-3,5C000000,-0724,0822,12307,030.4,045.6,0.472,730.7,01.19,0.508
2014-08-26 08:39:00,1812E-3,5C000000,-0724,0824,12360,030.4,045.6,0.472,730.7,01.19,0.508
2014-08-26 08:40:00,1709E-3,5C000000,-0724,0822,12177,030.5,045.6,0.471,730.7,01.19,0.508
2014-08-26 08:41:00,1804E-3,5C000000,-0724,0823,12369,030.5,045.6,0.471,730.7,01.19,0.508
2014-08-26 08:42:00,1895E-3,5C000000,-0724,0822,12253,030.5,045.6,0.472,730.7,01.19,0.508
2014-08-26 08:43:00,1820E-3,5C000000,-0724,0822,12304,030.5,045.6,0.472,730.7,01.19,0.508
2014-08-26 08:44:00,1856E-3,5C000000,-0724,0823,12417,030.5,045.6,0.471,730.7,01.19,0.508
2014-08-26 08:45:00,1917E-3,5C000000,-0724,0823,12300,030.5,045.6,0.471,730.7,01.19,0.508
2014-08-26 08:46:00,1971E-3,5C000000,-0724,0823,12255,030.5,045.6,0.472,730.7,01.19,0.508
2014-08-26 08:47:00,1928E-3,5C000000,-0724,0822,11983,030.5,045.6,0.472,730.7,01.19,0.508
2014-08-26 08:48:00,1899E-3,5C000000,-0724,0823,12329,030.5,045.6,0.471,730.7,01.19,0.508
2014-08-26 08:49:00,1798E-3,5C000000,-0724,0823,12084,030.5,045.6,0.471,730.6,01.19,0.508
2014-08-26 08:50:00,1939E-3,5C000000,-0724,0822,12355,030.5,045.6,0.472,730.7,01.19,0.508
2014-08-26 08:51:00,1735E-3,5C000000,-0724,0823,12109,030.5,045.6,0.472,730.6,01.19,0.508
2014-08-26 08:52:00,1783E-3,5C000000,-0724,0823,12288,030.4,045.6,0.471,730.6,01.19,0.508
2014-08-26 08:53:00,1850E-3,5C000000,-0724,0823,12411,030.4,045.6,0.471,730.6,01.19,0.508
2014-08-26 08:54:00,1857E-3,5C000000,-0724,0823,12419,030.4,045.6,0.472,730.7,01.19,0.508
2014-08-26 08:55:00,1790E-3,5C000000,-0724,0823,12415,030.4,045.5,0.472,730.7,01.19,0.508
2014-08-26 08:56:00,1727E-3,5C000000,-0724,0822,12319,030.3,045.5,0.471,730.7,01.19,0.508
2014-08-26 08:57:00,1960E-3,5C000000,-0724,0823,12204,030.3,045.6,0.472,730.6,01.19,0.508
2014-08-26 08:58:00,1731E-3,5C000000,-0724,0823,12294,030.3,045.6,0.472,730.7,01.19,0.508
2014-08-26 08:59:00,1862E-3,5C000000,-0724,0822,12336,030.3,045.5,0.472,730.7,01.19,0.508
2014-08-26 09:00:00,1769E-3,5C000000,-0724,0823,12095,030.2,045.5,0.472,730.7,01.19,0.508
2014-08-26 09:01:00,1919E-3,5C000000,-0724,0822,12205,030.2,045.6,0.472,730.7,01.19,0.508
2014-08-26 09:02:00,1907E-3,5C000000,-0724,0822,12341,030.2,045.6,0.472,730.7,01.19,0.508
2014-08-26 09:03:00,1957E-3,5C000000,-0724,0823,12203,030.1,045.6,0.472,730.7,01.19,0.508
2014-08-26 09:04:00,1844E-3,5C000000,-0724,0822,12317,030.1,045.6,0.472,730.7,01.19,0.508
2014-08-26 09:05:00,1873E-3,5C000000,-0724,0822,12351,030.1,045.5,0.473,730.7,01.19,0.508
2014-08-26 09:06:00,1744E-3,5C000000,-0724,0822,12163,030.0,045.5,0.472,730.7,01.19,0.508
2014-08-26 09:07:00,1884E-3,5C000000,-0724,0823,12312,030.0,045.5,0.472,730.6,01.19,0.508
2014-08-26 09:08:00,1922E-3,5C000000,-0724,0823,12191,030.0,045.5,0.473,730.6,01.19,0.508
2014-08-26 09:09:00,1948E-3,5C000000,-0724,0822,12320,030.0,045.5,0.472,730.6,01.19,0.508
2014-08-26 09:10:00,1945E-3,5C000000,-0724,0822,12086,029.9,045.5,0.473,730.6,01.19,0.508
2014-08-26 09:11:00,1866E-3,5C000000,-0724,0822,12443,029.9,045.5,0.472,730.6,01.19,0.508
2014-08-26 09:12:00,1919E-3,5C000000,-0724,0822,12309,029.9,045.5,0.473,730.6,01.19,0.508
2014-08-26 09:13:00,1977E-3,5C000000,-0724,0823,12395,029.9,045.5,0.472,730.6,01.19,0.508
2014-08-26 09:14:00,1825E-3,5C000000,-0724,0822,12244,029.9,045.6,0.473,730.6,01.19,0.508
2014-08-26 09:15:00,1864E-3,5C000000,-0724,0823,12201,029.9,045.6,0.472,730.6,01.19,0.508
2014-08-26 09:16:00,1828E-3,5C000000,-0724,0822,12215,029.8,045.5,0.473,730.6,01.19,0.508
2014-08-26 09:17:00,1767E-3,5C000000,-0724,0823,12155,029.8,045.5,0.472,730.6,01.19,0.508
2014-08-26 09:18:00,1954E-3,5C000000,-0724,0822,12233,029.8,045.6,0.473,730.6,01.19,0.508
2014-08-26 09:19:00,1911E-3,5C000000,-0724,0823,12221,029.9,045.5,0.473,730.6,01.19,0.508
2014-08-26 09:20:00,1921E-3,5C000000,-0724,0822,12377,029.9,045.5,0.472,730.6,01.19,0.508
2014-08-26 09:21:00,1837E-3,5C000000,-0724,0823,12142,029.9,045.5,0.473,730.6,01.19,0.508
2014-08-26 09:22:00,1898E-3,5C000000,-0724,0823,12255,029.9,045.5,0.473,730.7,01.19,0.508
2014-08-26 09:23:00,1774E-3,5C000000,-0724,0823,12354,029.9,045.5,0.472,730.6,01.19,0.508
2014-08-26 09:24:00,2026E-3,5C000000,-0724,0822,12015,029.9,045.5,0.473,730.6,01.19,0.508
2014-08-26 09:25:00,1895E-3,5C000000,-0724,0823,12323,029.9,045.5,0.473,730.6,01.19,0.508
2014-08-26 09:26:00,1843E-3,5C000000,-0724,0823,12320,029.9,045.5,0.472,730.6,01.19,0.508
2014-08-26 09:27:00,1782E-3,5C000000,-0724,0822,11956,029.9,045.6,0.473,730.7,01.19,0.508
2014-08-26 09:28:00,1891E-3,5C000000,-0724,0823,12247,029.9,045.5,0.473,730.7,01.19,0.508
2014-08-26 09:29:00,1854E-3,5C000000,-0724,0821,12204,029.9,045.5,0.472,730.7,01.19,0.508
2014-08-26 09:30:00,1777E-3,5C000000,-0724,0822,12358,029.9,045.5,0.473,730.7,01.19,0.508
2014-08-26 09:31:00,1918E-3,5C000000,-0724,0823,12303,029.9,045.5,0.472,730.7,01.19,0.508
2014-08-26 09:32:00,1805E-3,5C000000,-0724,0823,12420,030.0,045.6,0.472,730.7,01.19,0.508
2014-08-26 09:33:00,1824E-3,5C000000,-0724,0822,12230,030.0,045.5,0.473,730.7,01.19,0.508